Location: Buchloe
(48.0161°N, 10.7316°E)
Time: 05:39:58
(UTC+01:00)

ISS - Pass Details

Date: 04 December 2021
Orbit: 413 x 422 km, 51.6° (Epoch: 29 January)

Event Time Altitude Azimuth Distance (km) Brightness Sun altitude
Rises 17:47:56 0° 292° (WNW) 2,386 0.9 -13.3°
Reaches altitude 10° 17:50:03 10° 293° (WNW) 1,517 -0.2 -13.6°
Maximum altitude 17:53:28 87° 20° (NNE) 429 -3.8 -14.2°
Enters shadow 17:55:29 23° 112° (ESE) 957 -2.4 -14.5°
